SQ2CET-13 Weather Reports


time (UTC)temp
C
wind
direction
speed
KPH
gust
KPH
rain 1hr
cm
rain 24hr
cm
rain mn
cm
humidity
%
barometer
mb
20260506110050 6 260 3.2 12.9 0.10 0.20 0.20 96 1009.9
20260506105114 5 24 3.2 17.7 0.10 0.20 0.18 96 1010.0
20260506104034 5 17 4.8 16.1 0.10 0.20 0.18 96 1010.2
20260506103059 6 8 6.4 11.3 0.10 0.18 0.18 95 1010.4
20260506102113 6 10 4.8 14.5 0.05 0.15 0.15 95 1010.5
20260506101034 6 350 1.6 8.0 0.03 0.13 0.13 95 1010.5
20260506100117 6 27 3.2 17.7 0.00 0.10 0.10 95 1010.2
20260506095120 6 12 3.2 12.9 0.03 0.10 0.10 95 1010.1
20260506094042 6 9 1.6 6.4 0.05 0.10 0.10 95 1010.2
20260506093109 6 135 1.6 8.0 0.05 0.10 0.10 95 1010.1
20260506092113 6 210 4.8 9.7 0.05 0.10 0.10 95 1009.9
20260506091036 6 335 3.2 16.1 0.05 0.10 0.10 94 1009.9
20260506090057 6 170 3.2 11.3 0.05 0.10 0.08 94 1009.7
20260506085113 6 34 4.8 93.3 0.03 0.08 0.05 94 1009.8
20260506084034 6 227 1.6 6.4 0.00 0.05 0.05 94 1010.1
20260506083057 7 320 1.6 6.4 0.03 0.05 0.05 94 1009.7
20260506082140 7 316 1.6 8.0 0.03 0.05 0.05 94 1009.6
20260506081041 7 193 3.2 8.0 0.03 0.05 0.05 94 1009.6
20260506080104 7 249 3.2 8.0 0.03 0.05 0.03 94 1009.7
20260506073113 7 159 4.8 20.9 0.03 0.03 0.03 94 1009.8
20260506072034 7 173 3.2 16.1 0.03 0.03 0.03 94 1009.9
20260506071057 7 95 4.8 11.3 0.03 0.03 0.03 94 1010.0
20260506070141 7 54 3.2 8.0 0.00 0.03 0.00 94 1010.1
20260506062049 7 19 3.2 8.0 0.00 0.00 0.00 92 1010.4
20260506061112 8 165 4.8 9.7 0.00 0.00 0.00 92 1010.4
20260506051106 7 26 4.8 8.0 0.00 0.00 0.00 91 1010.6
20260506045043 7 81 1.6 8.0 0.00 0.00 0.00 92 1010.8
20260506044105 7 194 3.2 8.0 0.00 0.00 0.00 93 1010.8
20260506043122 7 8 3.2 6.4 0.00 0.00 0.00 93 1010.9
20260506042044 6 123 3.2 6.4 0.00 0.00 0.00 94 1010.9
20260506041105 6 49 1.6 8.0 0.00 0.00 0.00 94 1010.9
20260506040024 6 220 1.6 6.4 0.00 0.00 0.00 95 1010.9
20260506035042 6 110 1.6 8.0 0.00 0.00 0.00 95 1010.9
20260506034106 6 231 3.2 9.7 0.00 0.00 0.00 95 1010.9
20260506033025 6 99 3.2 9.7 0.00 0.00 0.00 95 1010.9
20260506032051 6 297 1.6 4.8 0.00 0.00 0.00 95 1011.0
20260506031115 6 347 3.2 8.0 0.00 0.00 0.00 95 1011.0
20260506030052 6 11 3.2 6.4 0.00 0.00 0.00 95 1010.8
20260506025049 5 220 1.6 6.4 0.00 0.00 0.00 95 1011.0
20260506024135 5 76 1.6 4.8 0.00 0.00 0.00 95 1011.1
20260506023035 6 231 3.2 6.4 0.00 0.00 0.00 95 1011.2
20260506022051 6 146 1.6 4.8 0.00 0.00 0.00 95 1011.3
20260506021113 6 345 0.0 3.2 0.00 0.00 0.00 95 1011.5
20260506020037 6 113 1.6 4.8 0.00 0.00 0.00 95 1011.5
20260506015119 6 74 1.6 4.8 0.00 0.00 0.00 95 1011.5
20260506014201 6 16 1.6 4.8 0.00 0.00 0.00 95 1011.3
20260506013044 6 45 0.0 4.8 0.00 0.00 0.00 95 1011.5
20260506012107 6 16 1.6 4.8 0.00 0.00 0.00 95 1011.5
20260506011026 6 187 1.6 4.8 0.00 0.00 0.00 95 1011.5
20260506010048 6 243 1.6 4.8 0.00 0.00 0.00 95 1011.6
20260506005134 6 299 3.2 4.8 0.00 0.00 0.00 94 1011.8
20260506004032 6 0.0 3.2 0.00 0.00 0.00 94 1011.7
20260506003049 6 43 1.6 4.8 0.00 0.00 0.00 94 1011.7
20260506002113 6 148 1.6 4.8 0.00 0.00 0.00 94 1011.7
20260506001032 6 196 0.0 3.2 0.00 0.00 0.00 94 1011.6
20260506000058 7 0.0 3.2 0.00 0.00 0.00 94 1011.6
20260505235017 7 0.0 1.6 0.00 0.00 0.00 94 1011.8
20260505234040 7 29 0.0 1.6 0.00 0.00 0.00 94 1011.9
20260505233105 7 184 0.0 1.6 0.00 0.00 0.00 94 1011.8
20260505232026 7 0.0 1.6 0.00 0.00 0.00 94 1011.9
20260505231050 7 16 0.0 1.6 0.00 0.00 0.00 94 1012.0
20260505230215 6 0.0 0.0 0.00 0.00 0.00 94 1012.1
20260505225035 7 0.0 1.6 0.00 0.00 0.00 94 1012.2
20260505224058 7 0.0 0.0 0.00 0.00 0.00 94 1012.0
20260505223017 7 0.0 0.0 0.00 0.00 0.00 94 1012.0
20260505222041 7 0.0 0.0 0.00 0.00 0.00 94 1011.9
20260505221058 7 0.0 0.0 0.00 0.00 0.00 94 1012.0
20260505220018 7 0.0 0.0 0.00 0.00 0.00 94 1012.0
20260505215034 8 0.0 3.2 0.00 0.00 0.00 94 1012.0
20260505214119 8 0.0 0.0 0.00 0.00 0.00 94 1012.0
20260505213117 8 0.0 1.6 0.00 0.00 0.00 94 1012.0
20260505212034 8 0.0 1.6 0.00 0.00 0.00 94 1012.1
20260505211050 8 0.0 0.0 0.00 0.00 0.00 94 1011.9
20260505210116 8 0.0 1.6 0.00 0.00 0.00 94 1012.1
20260505205034 8 0.0 3.2 0.00 0.00 0.00 94 1012.1
20260505204100 8 0.0 0.0 0.00 0.00 0.00 94 1012.1
20260505203021 8 34 0.0 3.2 0.00 0.00 0.00 94 1012.1
20260505202043 8 278 1.6 3.2 0.00 0.00 0.00 94 1012.1
20260505201107 8 0.0 0.0 0.00 0.00 0.00 93 1011.9
20260505200027 8 0.0 0.0 0.00 0.00 0.00 93 1011.9
20260505195051 8 0.0 1.6 0.00 0.00 0.00 93 1011.8
20260505194114 8 0.0 0.0 0.00 0.00 0.00 93 1011.9
20260505193026 8 0.0 1.6 0.00 0.00 0.00 93 1011.8
20260505192052 9 220 0.0 3.2 0.00 0.00 0.00 92 1011.8
20260505191113 9 87 0.0 3.2 0.00 0.00 0.00 92 1011.7
20260505190036 9 0.0 0.0 0.00 0.00 0.00 92 1011.9
20260505185058 9 26 0.0 1.6 0.00 0.00 0.00 91 1011.9
20260505184039 9 0.0 1.6 0.00 0.00 0.00 91 1011.8
20260505183043 10 30 0.0 3.2 0.00 0.00 0.00 90 1011.8
20260505182108 10 0.0 0.0 0.00 0.00 0.00 90 1011.8
20260505181108 10 0.0 1.6 0.00 0.00 0.00 90 1011.8
20260505180027 10 119 0.0 3.2 0.00 0.00 0.00 90 1011.7
20260505175051 10 0.0 3.2 0.00 0.00 0.00 90 1011.7
20260505174115 10 24 1.6 3.2 0.00 0.00 0.00 89 1011.7
20260505173034 10 83 1.6 4.8 0.00 0.00 0.00 88 1011.8
20260505172055 10 162 0.0 3.2 0.00 0.00 0.00 87 1011.8
20260505171128 10 124 1.6 4.8 0.00 0.00 0.00 87 1011.8
20260505170049 10 106 1.6 4.8 0.00 0.00 0.00 87 1011.9
20260505165052 11 0.0 4.8 0.00 0.00 0.00 89 1011.8
20260505164108 10 15 1.6 4.8 0.00 0.00 0.00 91 1011.9
20260505163039 10 107 1.6 6.4 0.00 0.00 0.00 91 1012.0
20260505162027 10 68 1.6 6.4 0.00 0.00 0.00 92 1011.8
20260505161112 10 169 1.6 4.8 0.00 0.00 0.00 92 1011.9
20260505160121 10 216 0.0 4.8 0.00 0.00 0.00 92 1012.0
20260505153155 10 128 1.6 4.8 0.00 0.00 0.00 91 1011.9
20260505152029 10 64 1.6 4.8 0.00 0.00 0.00 90 1012.1
20260505151043 11 0.0 3.2 0.00 0.00 0.00 89 1012.2
20260505150106 10 0.0 4.8 0.00 0.00 0.00 88 1012.2
20260505140116 12 0.0 4.8 0.00 0.00 0.00 81 1012.3
20260505130113 12 62 1.6 4.8 0.00 0.00 0.00 79 1012.7
20260505125027 12 56 0.0 3.2 0.00 0.00 0.00 79 1012.9
20260505124052 12 33 1.6 4.8 0.00 0.00 0.00 76 1013.0
20260505123115 13 0.0 3.2 0.00 0.00 0.00 76 1012.9
20260505122036 13 0.0 4.8 0.00 0.00 0.00 76 1012.9
20260505121059 13 91 3.2 6.4 0.00 0.00 0.00 75 1012.6
20260505120019 13 206 1.6 8.0 0.00 0.00 0.00 76 1012.7
20260505115043 13 40 3.2 8.0 0.00 0.00 0.00 75 1012.6
20260505114109 13 52 1.6 6.4 0.00 0.00 0.00 72 1012.5
20260505113106 13 268 1.6 8.0 0.00 0.00 0.00 71 1012.5
20260505112052 15 49 1.6 6.4 0.00 0.00 0.00 68 1012.3
20260505111115 15 36 1.6 8.0 0.00 0.00 0.00 61 1012.2